This demonstration page uses our WeatherBlox Daily Observations layout. Learn more.

Left ArrowRight Arrow

Hourly Observations for May 30, 2016

Temp ( °F °C ) Dew Point ( °F °C ) Humidity (%) Winds ( mph kmh ) Pressure ( in mb ) Visibility ( mi km ) Precip ( " mm )
12:53 am 00:53 Clear 72 22.2 50 10 46 46 N 5 7 29.92 1013 10 16 0.00 0.00
1:53 am 01:53 Clear 70 21.1 47 8.3 44 44 N 5 7 29.92 1013 10 16 0.00 0.00
2:53 am 02:53 Clear 72 22.2 44 6.7 37 37 NNW 7 11 29.93 1013 10 16 0.00 0.00
3:53 am 03:53 Clear 69 20.6 45 7.2 42 42 NW 6 9 29.93 1014 10 16 0.00 0.00
4:53 am 04:53 Clear 69 20.6 45 7.2 42 42 NNW 7 11 29.93 1014 10 16 0.00 0.00
5:53 am 05:53 Sunny 68 20 44 6.7 42 42 NNW 7 11 29.94 1014 10 16 0.00 0.00
6:53 am 06:53 Sunny 70 21.1 44 6.7 39 39 NNW 6 9 29.95 1014 10 16 0.00 0.00
7:53 am 07:53 Sunny 76 24.4 41 5 29 29 N 12 19 29.95 1014 10 16 0.00 0.00
8:53 am 08:53 Sunny 79 26.1 42 5.6 27 27 N 12 19 29.96 1014 10 16 0.00 0.00
9:53 am 09:53 Sunny 82 27.8 43 6.1 25 25 N 10 17 29.95 1014 10 16 0.00 0.00
10:53 am 10:53 Sunny 85 29.4 43 6.1 23 23 N 10 17 29.94 1014 10 16 0.00 0.00
11:53 am 11:53 Sunny 88 31.1 44 6.7 22 22 NNW 9 15 29.93 1013 10 16 0.00 0.00
12:53 pm 12:53 Sunny 91 32.8 43 6.1 19 19 NW 9 15 29.91 1013 10 16 0.00 0.00
1:53 pm 13:53 Sunny 93 33.9 41 5 16 16 NNE 8 13 29.88 1012 10 16 0.00 0.00
2:53 pm 14:53 Sunny 94 34.4 38 3.3 14 14 undefined N/A 29.87 1011 10 16 0.00 0.00
3:53 pm 15:53 Sunny 96 35.6 40 4.4 14 14 NNE 6 9 29.85 1011 10 16 0.00 0.00
4:53 pm 16:53 Sunny 97 36.1 34 1.1 11 11 Calm 29.83 1010 10 16 0.00 0.00
5:53 pm 17:53 Sunny 97 36.1 39 3.9 13 13 NE 6 9 29.81 1010 10 16 0.00 0.00
6:53 pm 18:53 Sunny 97 36.1 34 1.1 11 11 NNE 5 7 29.81 1009 10 16 0.00 0.00
7:53 pm 19:53 Sunny 89 31.7 45 7.2 22 22 WNW 3 6 29.81 1009 10 16 0.00 0.00
8:53 pm 20:53 Clear 82 27.8 47 8.3 29 29 W 6 9 29.82 1010 10 16 0.00 0.00
9:53 pm 21:53 Clear 80 26.7 49 9.4 34 34 N 5 7 29.84 1011 10 16 0.00 0.00
10:53 pm 22:53 Clear 77 25 47 8.3 35 35 NNW 5 7 29.84 1011 10 16 0.00 0.00
11:53 pm 23:53 Clear 74 23.3 49 9.4 41 41 NW 5 7 29.85 1011 10 16 0.00 0.00

Powered by AerisWeather